Погода в Няксимволе

Погода в Няксимволе : погода сейчас, прогноз погоды и архив. Всё, что Вы хотите узнать о погоде в Няксимволе!

Хотите узнать прогноз погоды в Няксимволе? Тогда Вам сюда: Погода в Няксимволе

Поиск расширенной информации на нашем сайте:

Другие новости

Новости СМИ2

Главная страница сайта

Новости сайта

03.07.2017

Напоминаем, что на нашем специализированном сайте Метеоцентр.Азия вы можете получить высокодетализированные автоматические прогнозы погоды по пунктам России, СНГ и мира в авиационном формате (включающие направление и скорость ветра, видимость, явления погоды, количество и форму облачности, нижнюю и верхнюю границу облачности).


Погода в Няксимволе - сегодня

Время (UTC), дата Ветер
(°,м/с) 
Видим.   Явления Облачность Т
(°С)
Тd
(°С)
f(%) Тe
(°С)
Pmin
(гПа)
dP
(гПа)
Po
(мм)
O2
(г/м3)
Тmin Tmax R s Состояние
почвы
00 24.07.17 310 (СЗ) 20000 м    ясно 
+12.1 +11.1 94 +16  1008.7  -0.6  752  288           
03 24.07.17 320 (СЗ) 20000 м    ясно 
+16.9 +13.8 82 +25  1007.9  -0.7  751  282  +12.1         
06 24.07.17 260 (З) 20000 м    ясно 
+23.9 +15.7 60 +34  1006.8  -0.9  751  275           
09 24.07.17 080 (В) 20000 м    8/8 1000 м 
[Cu med, cong]
+26.5 +12.4 42 +31  1005.6  -1.1  750  273           
12 24.07.17 080 (В) 20000 м  в посл. час гроза{ливн. осадки}  8/3 600 м кучево-дожд., верхняя 
[Cb calv|Ci sp]
+25.3 +13.1 47 +31  1005.2  -0.4  750  274           
15 24.07.17 050 (СВ) 20000 м    5/3 1000 м кучево-дожд., верхняя 
[Cb calv|Ci sp]
+24 +14.1 54 +31  1004.8  -0.4  749  275    +27.7  0.3     
18 24.07.17 080 (В) 20000 м    3/0 средняя 
[Ac cast]
+19.2 +15.6 80 +30  1004.8  749  279           
21 24.07.17 070 (В) 20000 м    1/0 средняя 
[Ac lent]
+16.7 +14.4 86 +26  1004.7  0.1  749  281           
00 25.07.17 340 (С) 20000 м    4/0 верхняя 
[Ci]
+14.1 +12.6 91 +20  1004.8  -0.1  749  285           
03 25.07.17 080 (В) 20000 м    3/0 верхняя 
[Cc]
+19.5 +14.6 73 +29  1005  0.2  749  279  +13.9         
06 25.07.17 070 (В) 20000 м    3/1 1000 м верхняя 
[Cu hum|Ci]
+25.1 +14.2 51 +32  1004.2  -0.7  749  273           
09 25.07.17 080 (В) 2{18}  н/о    н/о 
+22.2 +16.9 72 +34  1003.9  -0.7  749  275           
12 25.07.17 270 (З) 20000 м  слаб. ливневой дождь, в посл. час гроза  10/10 600 м кучево-дожд. 
[Cb cap]
+21.6 +15.5 68 +31  1004  0.1  749  276           
15 25.07.17 340 (С) 20000 м  слаб. ливневой дождь, в посл. час гроза  10/10 600 м кучево-дожд. 
[Cb cap]
+19.4 +16.6 84 +32  1004.2  -0.1  749  278    +25.5  20     
18 25.07.17 350 (С) 20000 м  слаб. ливневой дождь{гроза}  10/10 600 м кучево-дожд. 
[Cb cap]
+16.7 +15 90 +27  1004.2  -0.1  749  281           
21 25.07.17 060 (СВ) 20000 м  {ливн. осадки}  5/3 600 м кучево-дожд., верхняя 
[Cb cap|Ci fib]
+15.3 +13.3 88 +22  1003.5  -0.7  748  283           
00 26.07.17 060 (СВ) 20000 м    6/0 средняя, верхняя 
[Ac trans|Cs]
+15.7 +13.2 85 +22  1003.6  0.1  748  282           
03 26.07.17 050 (СВ) 20000 м    8/0 верхняя 
[Cs]
+19 +14.9 77 +29  1003.8  0.3  748  279  +15.2       
06 26.07.17 040 (СВ) 20000 м    10/0 средняя, верхняя 
[Ac trans|Cs]
+23.4 +15.2 60 +32  1003.5  -0.2  748  275           
12 26.07.17 010 (С) 1{14}  20000 м  в посл. час гроза  10/10 600 м кучево-дожд. 
[Cb cap]
+18 +15.5 85 +29  1005.7  1.9  750  280           
15 26.07.17 050 (СВ) 20000 м  {гроза}  10/10 1000 м 
[Sc diur, vesp]
+17.9 +15.1 84 +28  1005.7  750  280    +25.4     
18 26.07.17 010 (С) 20000 м  {гроза, ливн. осадки}  10/10 600 м кучево-дожд. 
[Cb cap]
+16.1 +14.2 88 +24  1006.5  0.8  750  283           
21 26.07.17 330 (СЗ) 20000 м    9/6 600 м кучево-дожд., верхняя 
[Cb cap|Cc]
+14.4 +13.2 92 +21  1006.6  -0.1  750  285           
00 27.07.17 310 (СЗ) 20000 м    10/0 средняя 
[Ac cuf]
+13.7 +12.6 93 +19  1007.3  0.7  751  286           
03 27.07.17 340 (С) 20000 м    9/3 300 м средняя 
[St|Ac As]
+15.1 +13.6 91 +22  1008.2  0.9  752  284  +13.4         
Время (UTC), дата Ветер
(°,м/с) 
Видим.   Явления Облачность Т
(°С)
Тd
(°С)
f(%) Тe
(°С)
Pmin
(гПа)
dP
(гПа)
Po
(мм)
O2
(г/м3)
Тmin Tmax R s Состояние
почвы

Для получения пояснительной информации подведите курсор к названию столбца.

ПОГОДА в Няксимволе - архив

Всё, что Вы хотите узнать о погоде в Няксимволе - удобно и подробно!

Выберите нужную дату (начиная с 1 января 2015* года) и нажмите кнопку "Найти".
Будут отображены архивные сводки погоды по пункту Няксимволь, начиная с указанной даты.


Отображать данные в формате CSV (для использования в таблицах Excel)


Внимание! Наш архив погоды предназначен исключительно для личного некоммерческого использования в познавательных целях. Если Вам необходимы официальные справки о состоянии погоды (для производственных, юридических, коммерческих и т.п. целей), обращайтесь в органы Росгидромета.

*Примечание: данная дата относится к архиву по метеостанциям СССР (Россия, СНГ, Балтия).
Архив по метеостанциям Зарубежной Европы и Азии (кроме Китая) хранится 10 дней, по другим регионам земного шара (Китай, Африка, Америка, Австралия, Океания) - 1 день.

Няксимволь - район местоположения метеостанции


Название, широта, долгота, высота метеостанции:
Няксимволь 62.4°ш. 60.9°д. 51 м над ур. моря [Российская Федерация]

Дополнительная информация

В oтличие oт бoльшинства пoгoдных сайтoв мы публикуем пoдрoбную метеoинфoрмацию в детальнoм прoфессиoнальнoм фoрмате.

Характеристики температуры и влажнoсти вoздуха измеряются на высoте 2 м в тени вдали oт зданий и деревьев.
Скoрoсть ветра измеряется на высoте 10 м (на урoвне рoста челoвека скoрoсть ветра ниже в 1.5-2 раза). Если метеoстанция нахoдится в гoрoде или в лесу, тo скoрoсть ветра занижена на 2-4 м/с пo сравнению с oткрытым местoм. Скoрoсть ветра над акватoриями крупных рек и oзёр, а также на вершинах хoлмoв на 2-5 м/с выше, чем в oбычных услoвиях.
Атмoсфернoе давление в разных тoчках местнoсти мoжет значительнo oтличаться oт давления на метеoстанции, в зависимoсти oт услoвий рельефа (при пoдъёме на 10 м давление пoнижается примернo на 1 мм рт.ст.).